Погода в Марселе

Франция     43˚18′10″N   5˚22′45″E
темп.,
°C
ветер,
м/с
пор.,
м/с
влажн.,
%
обл.,
%
осадки,
мм/ч
давл.,
гПа
погр.,
м
6 декабря, вс
вс601:00+8˚ссз236350 0.0 1001436
04:00+7˚ссз35620 0.0 1001381
07:00+7˚сз34590 0.0 1001376
10:00+8˚сз23640 0.0 1001381
13:00+9˚зсз810645 0.0 10001032
16:00+9˚зсз710670 0.1 9991157
19:00+10˚зсз1013656 0.4 10001205
22:00+8˚сз1013623 0.1 10011229
7 декабря, пн
пн701:00+8˚сз811601 0.1 10021104
04:00+8˚сз811640 0.0 10021126
07:00+7˚сз710660 0.0 1003861
10:00+7˚ссз35610 0.0 1004429
13:00+9˚з114619 0.0 1003470
16:00+9˚в114858 0.0 1002402
19:00+9˚в465569 0.0 1003488
22:00+9˚всв4662100 0.1 1003376
8 декабря, вт
вт801:00+8˚св6982100 5.5 1002500
04:00+6˚св7985100 7.4 1000394
07:00+7˚ссз4580100 15.5 1001333
10:00+7˚ссв4578100 2.0 1001296
13:00+8˚ссз3773100 2.8 1001604
16:00+9˚сз7969100 0.1 1001856
19:00+9˚сз10146696 0.1 10021146
22:00+8˚сз1317690 0.0 1003901
9 декабря, ср
ср901:00+7˚сз1418700 0.0 10031049
04:00+6˚сз1418700 0.0 10031101
07:00+6˚ссз1418690 0.0 10041126
10:00+7˚ссз1014650 0.0 1005964
13:00+9˚ссз1012569 0.0 10061033
16:00+8˚ссз911551 0.0 1007968
19:00+7˚ссз1014611 0.0 1009853
22:00+6˚ссз913640 0.0 1010797
10 декабря, чт
чт1001:00+5˚ссз6106810 0.0 1010513
04:00+5˚ссз576763 0.0 1010358
07:00+5˚ссз566482 0.0 1009313
10:00+5˚ссз556195 0.0 1010317
13:00+8˚сз575359 0.0 1009539
16:00+9˚ссз344717 0.0 1009455
19:00+8˚ссв225059 0.0 1009170
22:00+8˚всв2252100 0.0 1011168